Regional Weather Roundup
Issued by NWS Burlington, VT

Home | Current Version | Previous Version | Text Only | Print | Product List | Glossary On
Versions: 1 2 3 4 5 6 7 8 9 10 11 12 13 14 15 16 17 18 19 20 21 22 23 24 25 26 27 28 29 30 31 32 33 34 35 36 37 38 39 40 41 42 43 44 45 46 47 48 49 50
000
ASUS41 KBTV 302030
RWRBTV
VERMONT REGIONAL WEATHER ROUNDUP
NATIONAL WEATHER SERVICE BURLINGTON VT
400 PM EDT TUE JUN 30 2015

NOTE: "FAIR" INDICATES FEW OR NO CLOUDS BELOW 12,000 FEET WITH NO
SIGNIFICANT WEATHER AND/OR OBSTRUCTIONS TO VISIBILITY.

* THESE REPORTS ARE NOT UNDER NWS QUALITY CONTROL AND/OR DO NOT
  REPORT WEATHER SUCH AS PRECIPITATION AND FOG.

VTZ001>019-302100-
_____VERMONT_____


CITY           SKY/WX    TMP DP  RH WIND       PRES   REMARKS
BURLINGTON     LGT RAIN  68  60  75 S10       29.94F
MONTPELIER     LGT RAIN  65  55  70 S8        30.01F
MORRISVILLE    LGT RAIN  71  59  65 SW6       29.96F
ST. JOHNSBURY*   N/A     75  54  47 MISG      29.94S
LYNDONVILLE*   FAIR      71  55  58 SE3       29.98F
MIDDLEBURY*    RAIN      66  66 100 CALM      29.95F
RUTLAND*       CLOUDY    64  57  77 SE5       29.97F
SPRINGFIELD    CLOUDY    65  62  90 NE3       29.98F
HIGHGATE*      LGT RAIN  69  60  72 S9G16     29.92S
NEWPORT*       FAIR      71  55  58 S5        29.95F
BENNINGTON     LGT RAIN  66  62  87 CALM      29.95F FOG
SUTTON*          N/A     70 N/A N/A MISG        N/A
GALLUP MILLS*    N/A     70 N/A N/A MISG        N/A
MT. MANSFIELD*   N/A     54 N/A N/A SE15        N/A

_____LAKE CHAMPLAIN_____


CITY           SKY/WX    TMP DP  RH WIND       PRES   REMARKS
BURTON ISLAND*   N/A     68  61  77 S14         N/A
COLCHESTER RF*   N/A     66  61  82 S15         N/A
DIAMOND ISL*     N/A     66  57  72 S14         N/A

$$

NYZ007-026>031-035-052-083-302100-
_____NORTHERN NEW YORK_____


CITY           SKY/WX    TMP DP  RH WIND       PRES   REMARKS
PLATTSBURGH    LGT RAIN  65  59  81 S5        29.93S
SARANAC LAKE   LGT RAIN  61  58  90 SE5       29.94F
MASSENA        LGT RAIN  69  52  54 S8        29.90R
OGDENSBURG*    PTSUNNY   66  57  72 S6        29.88F
POTSDAM*       RAIN      63  61  94 SE7       29.90S
STARK FALLS*     N/A     61 N/A N/A E12         N/A
WATERTOWN      CLOUDY    63  60  90 NE8       29.83F
FT DRUM        CLOUDY    62  60  94 SE7       29.85F
ALBANY         CLOUDY    68  63  84 NE3       29.93F
GLENS FALLS    LGT RAIN  63  59  87 N8        29.93F FOG

$$
NHZ002-005-011-302100-
_____NEW HAMPSHIRE_____


CITY           SKY/WX    TMP DP  RH WIND       PRES   REMARKS
LEBANON        LGT RAIN  68  64  87 CALM      29.97F
KEENE          CLOUDY    72  64  78 CALM      29.96S
MT WASHINGTON  CLOUDY    50  48  93 S7          N/A
PLYMOUTH       LGT RAIN  72  65  80 CALM      29.96F
WHITEFIELD     PTSUNNY   76  52  43 SW3       29.96S

$$

_____REGIONAL QUEBEC LOCATIONS_____


CITY           SKY/WX    TMP DP  RH WIND       PRES   REMARKS
MONTREAL       PTSUNNY   75  55  50 SE10      29.89F
QUEBEC CITY    PTSUNNY   77  64  65 SW9       29.90F
SHERBROOKE     SUNNY     75  57  53 SW3       29.94S

_____REGIONAL ONTARIO LOCATIONS_____


CITY           SKY/WX    TMP DP  RH WIND       PRES   REMARKS
OTTAWA         CLOUDY    73  61  64 E5        29.87F

______KEY______
VSB  - VISIBILITY IN MILES
WCI  - WIND CHILL INDEX
HX   - HEAT INDEX
$$
NNNN


USA.gov is the U.S. government's official web portal to all federal, state and local government web resources and services.